1493845200.94,6510,13.63,73800.3,0.69,-0.07,-0.15,0,*43
1493845202.1,6511,13.56,73798.5,0.69,-0.07,-0.07,0,*71
1493845203.25,6512,13.56,73798.3,0.69,-0.07,-0.07,0,*72
1493845204.41,6513,13.63,73800.8,0.69,-0.07,-0.07,0,*73
1493845205.56,6514,13.56,73798.8,0.69,-0.07,-0.07,0,*74
1493845206.72,6515,13.63,73802.5,0.69,-0.07,-0.07,0,*75
1493845207.88,6516,13.56,73794.0,0.69,-0.07,-0.15,0,*45
1493845209.03,6517,13.63,73796.0,0.69,-0.07,-0.07,0,*77
1493845210.19,6518,13.63,73800.8,0.69,-0.07,-0.07,0,*78
1493845211.34,6519,13.56,73796.5,0.69,-0.07,-0.07,0,*79
1493845212.5,6520,13.63,73800.8,0.69,-0.07,-0.07,0,*73
1493845213.65,6521,13.56,73800.5,0.69,-0.07,-0.07,0,*72
1493845214.81,6522,13.56,73798.8,0.69,-0.07,-0.07,0,*71
1493845216.01,6523,13.56,73802.8,0.67,-0.11,-0.11,0,*7E
1493845217.16,6524,13.63,73804.3,0.69,-0.07,-0.07,0,*77
1493845218.31,6525,13.56,73800.8,0.73,-0.03,-0.03,0,*7D
1493845219.47,6526,13.56,73804.3,0.69,-0.07,-0.07,0,*75
1493845220.62,6527,13.56,73800.5,0.69,-0.07,-0.07,0,*74
1493845221.78,6528,13.56,73806.8,0.69,-0.07,-0.07,0,*7B
1493845222.93,6529,13.63,73808.0,0.69,-0.07,-0.07,0,*7A
1493845224.1,6530,13.56,73810.3,0.69,-0.07,-0.15,0,*41
1493845225.26,6531,13.56,73810.3,0.73,-0.03,-0.11,0,*4B
1493845226.41,6532,13.56,73810.5,0.73,-0.03,-0.03,0,*7B
1493845227.57,6533,13.56,73808.3,0.73,-0.03,-0.03,0,*7A
1493845228.72,6534,13.56,73810.0,0.73,-0.03,-0.03,0,*7D
1493845229.88,6535,13.63,73812.5,0.73,-0.11,-0.03,0,*4F
1493845231.03,6536,13.63,73810.8,0.69,-0.07,-0.07,0,*74
1493845232.19,6537,13.56,73804.3,0.69,-0.07,-0.07,0,*75
1493845233.34,6538,13.63,73810.8,0.69,-0.07,-0.07,0,*7A
1493845234.54,6539,13.63,73804.3,0.67,-0.11,-0.11,0,*75
1493845235.74,6540,13.63,73806.3,0.67,-0.11,-0.11,0,*7B
1493845236.9,6541,13.56,73806.8,0.69,-0.07,-0.07,0,*74
1493845238.05,6542,13.56,73800.8,0.69,-0.07,-0.07,0,*77
1493845239.21,6543,13.56,73802.5,0.69,-0.07,-0.07,0,*76
1493845240.36,6544,13.63,73802.5,0.69,-0.07,-0.07,0,*71
1493845241.52,6545,13.63,73806.5,0.69,-0.15,-0.07,0,*43
1493845242.68,6546,13.63,73806.0,0.69,-0.07,-0.07,0,*73
1493845243.83,6547,13.56,73802.0,0.69,-0.07,-0.03,0,*76
1493845244.98,6548,13.56,73800.0,0.69,-0.07,-0.03,0,*79
1493845246.14,6549,13.56,73802.3,0.69,-0.07,-0.03,0,*78
1493845247.29,6550,13.63,73810.5,0.69,-0.07,-0.03,0,*70
1493845248.45,6551,13.63,73806.5,0.69,-0.07,-0.03,0,*71
1493845249.6,6552,13.56,73800.0,0.69,-0.07,-0.07,0,*76
1493845250.76,6553,13.56,73800.0,0.69,-0.07,-0.07,0,*77
1493845251.91,6554,13.56,73802.0,0.69,-0.07,-0.07,0,*70
1493845253.07,6555,13.56,73802.8,0.69,-0.07,-0.07,0,*71
1493845254.22,6556,13.63,73806.8,0.69,-0.07,-0.07,0,*72
1493845255.42,6557,13.56,73796.3,0.67,-0.11,-0.11,0,*7D
1493845256.58,6558,13.56,73794.5,0.69,-0.07,-0.07,0,*7C
1493845257.73,6559,13.56,73800.3,0.69,-0.15,-0.07,0,*4E
1493845258.89,6560,13.56,73798.3,0.69,-0.07,-0.07,0,*77
1493845260.04,6561,13.56,73796.3,0.69,-0.07,-0.07,0,*76
1493845261.2,6562,13.56,73796.5,0.69,-0.07,-0.07,0,*75
1493845262.35,6563,13.56,73802.3,0.69,-0.07,-0.07,0,*74
1493845263.51,6564,13.56,73802.5,0.69,-0.07,-0.07,0,*73
1493845264.67,6565,13.56,73806.8,0.69,-0.15,-0.07,0,*41
1493845265.84,6566,13.56,73796.3,0.69,-0.11,-0.11,0,*71
1493845267.0,6567,13.63,73802.8,0.69,-0.07,-0.07,0,*70
1493845268.15,6568,13.63,73798.3,0.73,-0.03,-0.03,0,*74
1493845269.3,6569,13.56,73798.5,0.73,-0.03,-0.03,0,*75
1493845270.46,6570,13.56,73794.3,0.73,-0.03,-0.03,0,*7D
1493845271.61,6571,13.56,73798.0,0.69,-0.07,-0.07,0,*77
1493845272.76,6572,13.56,73798.0,0.73,-0.07,-0.07,0,*7F
1493845273.92,6573,13.63,73800.3,0.69,-0.07,-0.07,0,*75
1493845275.07,6574,13.63,73806.0,0.69,-0.07,-0.03,0,*76
1493845276.26,6575,13.56,73804.0,0.67,-0.11,-0.07,0,*4A
1493845277.42,6576,13.56,73804.8,0.69,-0.07,-0.03,0,*74
1493845278.58,6577,13.56,73806.3,0.69,-0.07,-0.15,0,*42
1493845279.78,6578,13.56,73806.5,0.67,-0.11,-0.11,0,*70
1493845280.94,6579,13.56,73804.0,0.69,-0.15,-0.07,0,*4C
1493845282.09,6580,13.56,73796.8,0.69,-0.07,-0.07,0,*79
1493845283.25,6581,13.56,73794.0,0.73,-0.03,-0.03,0,*73
1493845284.4,6582,13.56,73800.5,0.73,-0.03,-0.03,0,*70
1493845285.55,6583,13.56,73802.3,0.69,-0.07,-0.07,0,*7A
1493845286.75,6584,13.56,73802.5,0.67,-0.19,-0.11,0,*7B
1493845287.91,6585,13.56,73804.0,0.69,-0.07,-0.07,0,*7C
1493845289.11,6586,13.56,73804.3,0.67,-0.11,-0.11,0,*71
1493845290.27,6587,13.63,73804.8,0.69,-0.07,-0.15,0,*4D
1493845291.43,6588,13.56,73800.8,0.69,-0.07,-0.07,0,*71
1493845292.58,6589,13.56,73800.0,0.69,-0.07,-0.07,0,*70
1493845293.73,6590,13.56,73798.3,0.69,-0.07,-0.07,0,*78
1493845294.89,6591,13.56,73798.0,0.69,-0.15,-0.07,0,*4A
1493845296.06,6592,13.56,73800.8,0.69,-0.07,-0.15,0,*49
1493845297.21,6593,13.56,73802.8,0.73,-0.03,-0.03,0,*70
1493845298.36,6594,13.56,73804.0,0.69,-0.07,-0.07,0,*7C
1493845299.52,6595,13.56,73806.0,0.69,-0.07,-0.07,0,*7D
1493845300.68,6596,13.56,73804.8,0.69,-0.07,-0.07,0,*7E
1493845301.83,6597,13.63,73808.8,0.69,-0.07,-0.07,0,*7F
1493845302.98,6598,13.56,73806.3,0.69,-0.07,-0.07,0,*70
1493845304.18,6599,13.56,73802.0,0.67,-0.11,-0.11,0,*7F
1493845305.34,6600,13.56,73796.5,0.69,-0.15,-0.07,0,*41
1493845306.51,6601,13.56,73802.3,0.69,-0.07,-0.15,0,*40
1493845307.67,6602,13.56,73802.3,0.69,-0.07,-0.15,0,*43
1493845308.82,6603,13.56,73804.8,0.69,-0.07,-0.03,0,*75
1493845310.02,6604,13.56,73802.0,0.67,-0.19,-0.11,0,*70
1493845311.18,6605,13.56,73802.0,0.69,-0.07,-0.07,0,*77
1493845312.33,6606,13.56,73806.8,0.69,-0.07,-0.07,0,*74
1493845313.53,6607,13.56,73806.0,0.67,-0.11,-0.11,0,*7B
1493845314.73,6608,13.56,73804.8,0.67,-0.11,-0.19,0,*7C
1493845315.93,6609,13.56,73804.0,0.67,-0.11,-0.11,0,*75
1493845317.08,6610,13.56,73800.3,0.69,-0.07,-0.07,0,*73
1493845318.24,6611,13.56,73804.8,0.69,-0.07,-0.07,0,*72
1493845319.39,6612,13.56,73804.5,0.69,-0.07,-0.07,0,*71
1493845320.55,6613,13.56,73804.5,0.69,-0.07,-0.07,0,*70
1493845321.7,6614,13.56,73800.5,0.69,-0.07,-0.07,0,*77
1493845322.86,6615,13.56,73802.3,0.69,-0.07,-0.15,0,*45
1493845324.02,6616,13.56,73808.0,0.69,-0.07,-0.07,0,*75
1493845325.17,6617,13.56,73802.0,0.73,-0.03,-0.03,0,*7F
1493845326.34,6618,13.56,73796.5,0.69,-0.07,-0.11,0,*4C
1493845327.5,6619,13.56,73806.8,0.69,-0.15,-0.07,0,*49
1493845328.66,6620,13.56,73802.8,0.69,-0.07,-0.15,0,*43
1493845329.81,6621,13.56,73800.8,0.69,-0.07,-0.07,0,*71
1493845330.97,6622,13.56,73802.3,0.69,-0.07,-0.07,0,*72
1493845332.14,6623,13.56,73804.8,0.69,-0.15,-0.15,0,*73
1493845333.3,6624,13.56,73802.8,0.69,-0.15,-0.07,0,*47
1493845334.45,6625,13.56,73802.0,0.69,-0.07,-0.07,0,*75
1493845335.6,6626,13.56,73800.5,0.69,-0.07,-0.07,0,*76
1493845336.76,6627,13.56,73804.5,0.69,-0.07,-0.07,0,*77
1493845337.91,6628,13.56,73806.3,0.69,-0.07,-0.07,0,*78
1493845339.07,6629,13.56,73804.5,0.69,-0.07,-0.07,0,*79
1493845340.23,6630,13.56,73806.5,0.69,-0.15,-0.07,0,*42
1493845341.38,6631,13.56,73806.3,0.69,-0.07,-0.07,0,*70
1493845342.54,6632,13.56,73806.8,0.69,-0.07,-0.07,0,*73
1493845343.69,6633,13.56,73804.0,0.69,-0.07,-0.07,0,*72
1493845344.85,6634,13.56,73804.8,0.69,-0.07,-0.07,0,*75
1493845346.0,6635,13.56,73804.8,0.73,-0.03,-0.03,0,*7F
1493845347.15,6636,13.56,73804.0,0.77,0.01,0.01,0,*78
1493845348.32,6637,13.56,73806.5,0.73,-0.11,-0.11,0,*7D
1493845349.47,6638,13.56,73804.5,0.69,-0.07,-0.07,0,*79
1493845350.63,6639,13.56,73804.5,0.69,-0.07,-0.07,0,*78
1493845351.78,6640,13.56,73810.5,0.69,-0.07,-0.07,0,*76
1493845352.94,6641,13.56,73808.3,0.69,-0.07,-0.07,0,*77
1493845354.1,6642,13.56,73806.8,0.69,-0.15,-0.07,0,*47
1493845355.25,6643,13.56,73806.0,0.69,-0.07,-0.07,0,*75
1493845356.42,6644,13.56,73804.3,0.69,-0.15,-0.15,0,*72
1493845357.57,6645,13.56,73804.0,0.69,-0.07,-0.07,0,*73
1493845358.73,6646,13.56,73806.5,0.69,-0.07,-0.07,0,*70
1493845359.89,6647,13.56,73808.5,0.69,-0.07,-0.15,0,*42
1493845361.05,6648,13.56,73806.8,0.69,-0.07,-0.07,0,*7E
1493845362.2,6649,13.56,73804.0,0.69,-0.07,-0.07,0,*7F
1493845363.36,6650,13.56,73802.5,0.69,-0.07,-0.07,0,*77
1493845364.51,6651,13.56,73804.5,0.69,-0.07,-0.07,0,*76
1493845365.67,6652,13.56,73802.3,0.69,-0.07,-0.07,0,*75
1493845366.82,6653,13.56,73802.8,0.69,-0.07,-0.07,0,*74
1493845367.98,6654,13.56,73806.0,0.69,-0.07,-0.07,0,*73
1493845369.13,6655,13.56,73798.8,0.69,-0.07,-0.07,0,*72
1493845370.28,6656,13.56,73800.5,0.69,-0.07,-0.07,0,*71
1493845371.44,6657,13.56,73802.8,0.69,-0.07,-0.07,0,*70
1493845372.59,6658,13.56,73796.3,0.69,-0.07,-0.07,0,*7F
1493845373.75,6659,13.56,73800.3,0.69,-0.07,-0.07,0,*7E
1493845374.9,6660,13.56,73798.5,0.73,-0.03,-0.03,0,*7F
1493845376.06,6661,13.56,73794.3,0.69,-0.07,-0.07,0,*75
1493845377.21,6662,13.56,73792.3,0.69,-0.07,-0.07,0,*76
1493845378.37,6663,13.56,73794.3,0.69,-0.07,-0.07,0,*77
1493845379.52,6664,13.56,73792.3,0.69,-0.07,-0.07,0,*70
1493845380.67,6665,13.56,73792.5,0.77,0.01,0.01,0,*7E
1493845381.82,6666,13.56,73792.0,0.73,-0.03,-0.03,0,*79
1493845382.98,6667,13.56,73796.0,0.73,-0.03,-0.03,0,*78
1493845384.14,6668,13.56,73792.0,0.73,-0.11,-0.03,0,*44
1493845385.28,6669,13.56,73798.0,0.73,0.01,-0.03,0,*59
1493845386.43,6670,13.56,73796.5,0.73,-0.03,-0.03,0,*7E
1493845387.59,6671,13.56,73796.0,0.73,-0.11,-0.03,0,*4C
1493845388.75,6672,13.56,73798.0,0.69,-0.07,-0.07,0,*77
1493845389.91,6673,13.56,73800.5,0.69,-0.15,-0.07,0,*45
1493845391.11,6674,13.56,73800.3,0.67,-0.19,-0.11,0,*77
1493845392.26,6675,13.56,73802.5,0.69,-0.07,-0.07,0,*70
1493845393.41,6676,13.56,73800.0,0.73,-0.03,-0.03,0,*78
1493845394.57,6677,13.56,73798.3,0.73,-0.03,-0.03,0,*79
1493845395.72,6678,13.56,73798.8,0.73,-0.03,-0.03,0,*76
1493845396.87,6679,13.56,73798.0,0.73,-0.03,-0.03,0,*77
1493845398.03,6680,13.56,73802.3,0.73,-0.03,-0.03,0,*71
1493845399.18,6681,13.56,73796.8,0.73,-0.03,-0.03,0,*70
1493845400.34,6682,13.56,73798.8,0.69,-0.07,-0.07,0,*78
1493845401.49,6683,13.56,73800.3,0.69,-0.07,-0.07,0,*79
1493845402.64,6684,13.56,73796.8,0.69,-0.07,-0.07,0,*7E
1493845403.8,6685,13.56,73802.3,0.69,-0.07,-0.03,0,*7B
1493845404.95,6686,13.56,73796.8,0.69,-0.07,-0.03,0,*78
1493845406.11,6687,13.56,73796.0,0.73,-0.11,-0.03,0,*45
1493845407.27,6688,13.56,73794.0,0.73,-0.03,-0.03,0,*79
1493845408.42,6689,13.56,73798.5,0.69,-0.07,-0.07,0,*73
1493845409.58,6690,13.56,73800.8,0.69,-0.07,-0.07,0,*7B
1493845410.78,6691,13.56,73796.5,0.67,-0.11,-0.11,0,*74
1493845411.94,6692,13.56,73798.5,0.69,-0.07,-0.15,0,*4A
1493845413.09,6693,13.56,73796.0,0.69,-0.07,-0.07,0,*78
1493845414.25,6694,13.56,73806.3,0.69,-0.07,-0.07,0,*7F
1493845415.41,6695,13.56,73806.0,0.69,-0.15,-0.07,0,*4D
1493845416.56,6696,13.56,73802.8,0.69,-0.07,-0.07,0,*7D
1493845417.72,6697,13.56,73804.5,0.69,-0.07,-0.07,0,*7C
1493845418.88,6698,13.56,73804.5,0.69,-0.15,-0.07,0,*40
1493845420.04,6699,13.56,73804.3,0.69,-0.07,-0.15,0,*41
1493845421.19,6700,13.56,73802.0,0.69,-0.07,-0.07,0,*73
1493845422.35,6701,13.56,73800.5,0.69,-0.07,-0.07,0,*72
1493845423.5,6702,13.56,73806.3,0.69,-0.07,-0.07,0,*71
1493845424.66,6703,13.56,73802.8,0.69,-0.07,-0.07,0,*70
1493845425.81,6704,13.56,73804.3,0.69,-0.07,-0.07,0,*77
1493845426.97,6705,13.56,73800.3,0.69,-0.07,-0.07,0,*76
1493845428.12,6706,13.56,73798.5,0.69,-0.07,-0.07,0,*75
1493845429.28,6707,13.56,73802.8,0.69,-0.07,-0.07,0,*74
1493845430.43,6708,13.56,73800.3,0.69,-0.07,-0.07,0,*7B
1493845431.59,6709,13.56,73802.5,0.69,-0.07,-0.07,0,*7A
1493845432.79,6710,13.56,73806.5,0.67,-0.11,-0.11,0,*7C
1493845433.94,6711,13.56,73800.8,0.69,-0.07,-0.07,0,*73
1493845435.1,6712,13.56,73806.0,0.69,-0.07,-0.07,0,*70
1493845436.25,6713,13.56,73806.5,0.69,-0.07,-0.07,0,*71
1493845437.41,6714,13.56,73806.3,0.69,-0.15,-0.07,0,*45
1493845438.57,6715,13.56,73804.3,0.69,-0.07,-0.07,0,*77
1493845439.72,6716,13.56,73804.3,0.69,-0.07,-0.07,0,*74
1493845440.88,6717,13.56,73798.0,0.69,-0.15,-0.07,0,*46
1493845442.04,6718,13.56,73798.5,0.69,-0.07,-0.07,0,*7A
1493845443.19,6719,13.56,73798.5,0.69,-0.07,-0.07,0,*7B
1493845444.34,6720,13.56,73798.5,0.69,-0.07,-0.07,0,*71
1493845445.5,6721,13.56,73796.5,0.69,-0.07,-0.07,0,*70
1493845446.65,6722,13.56,73800.0,0.69,-0.07,-0.07,0,*73
1493845447.81,6723,13.56,73794.8,0.69,-0.07,-0.07,0,*72
1493845448.96,6724,13.56,73788.5,0.69,-0.07,-0.07,0,*75
1493845450.12,6725,13.56,73792.3,0.69,-0.07,-0.07,0,*74
1493845451.29,6726,13.56,73792.5,0.69,-0.11,-0.11,0,*77
1493845452.45,6727,13.56,73794.5,0.69,-0.07,-0.07,0,*76
1493845453.6,6728,13.56,73794.0,0.73,-0.03,-0.03,0,*72
1493845454.76,6729,13.56,73784.5,0.73,-0.11,-0.03,0,*40
1493845455.91,6730,13.56,73798.8,0.73,-0.03,-0.03,0,*7B
1493845457.07,6731,13.56,73792.3,0.73,-0.03,-0.11,0,*49
1493845458.23,6732,13.56,73784.8,0.69,-0.03,-0.07,0,*76
1493845459.39,6733,13.56,73790.8,0.69,-0.07,-0.07,0,*73
1493845460.54,6734,13.56,73790.3,0.69,-0.07,-0.07,0,*74
1493845461.74,6735,13.56,73784.8,0.67,-0.19,-0.19,0,*7B
1493845462.89,6736,13.56,73784.5,0.69,-0.07,-0.07,0,*76
1493845464.05,6737,13.56,73788.0,0.69,-0.07,-0.07,0,*77
1493845465.2,6738,13.56,73786.8,0.73,-0.03,-0.03,0,*73
1493845466.35,6739,13.56,73782.8,0.73,-0.03,-0.03,0,*72
1493845467.51,6740,13.56,73784.5,0.69,-0.07,-0.07,0,*77
1493845468.66,6741,13.56,73792.3,0.69,-0.07,-0.07,0,*76
1493845469.82,6742,13.56,73798.3,0.73,-0.03,-0.03,0,*7E
1493845470.97,6743,13.56,73794.8,0.69,-0.07,-0.07,0,*74
1493845472.13,6744,13.56,73794.0,0.69,-0.07,-0.15,0,*40
1493845473.29,6745,13.56,73796.0,0.69,-0.07,-0.07,0,*72
1493845474.45,6746,13.56,73796.3,0.69,-0.07,-0.15,0,*42
1493845475.61,6747,13.56,73802.3,0.73,-0.11,-0.03,0,*48
1493845476.77,6748,13.56,73804.8,0.69,-0.15,-0.07,0,*4C
1493845477.93,6749,13.56,73806.8,0.69,-0.07,-0.15,0,*4D
1493845479.09,6750,13.56,73804.5,0.69,-0.07,-0.07,0,*76
1493845480.24,6751,13.56,73800.5,0.69,-0.07,-0.07,0,*77
1493845481.4,6752,13.56,73802.5,0.69,-0.07,-0.07,0,*74
1493845482.55,6753,13.56,73806.5,0.69,-0.07,-0.07,0,*75
1493845483.75,6754,13.56,73798.0,0.67,-0.11,-0.11,0,*7C
1493845484.91,6755,13.56,73798.8,0.69,-0.07,-0.07,0,*73
1493845486.06,6756,13.56,73792.5,0.73,-0.03,-0.03,0,*7B
1493845487.22,6757,13.56,73798.0,0.69,-0.07,-0.15,0,*42
1493845488.38,6758,13.56,73792.3,0.73,-0.11,-0.03,0,*46
1493845489.54,6759,13.56,73792.0,0.73,-0.11,-0.03,0,*47
1493845490.7,6760,13.56,73790.8,0.69,-0.07,-0.07,0,*75
1493845491.85,6761,13.56,73796.3,0.69,-0.07,-0.07,0,*74
1493845493.01,6762,13.56,73798.3,0.69,-0.15,-0.07,0,*44
1493845494.17,6763,13.56,73804.8,0.69,-0.15,-0.07,0,*45
1493845495.33,6764,13.56,73806.0,0.69,-0.07,-0.07,0,*71
1493845496.48,6765,13.56,73804.0,0.69,-0.07,-0.07,0,*70
1493845497.63,6766,13.56,73804.3,0.69,-0.07,-0.07,0,*73
1493845498.79,6767,13.56,73800.8,0.69,-0.07,-0.07,0,*72
1493845499.99,6768,13.56,73806.5,0.67,-0.11,-0.11,0,*73
1493845501.15,6769,13.56,73800.8,0.69,-0.07,-0.15,0,*4F
1493845502.31,6770,13.56,73802.0,0.69,-0.07,-0.07,0,*74
1493845503.46,6771,13.56,73802.8,0.69,-0.07,-0.07,0,*75
1493845504.62,6772,13.56,73806.5,0.69,-0.07,-0.07,0,*76
1493845505.77,6773,13.56,73804.5,0.69,-0.07,-0.07,0,*77
1493845506.92,6774,13.56,73804.8,0.73,-0.03,-0.03,0,*7B
1493845508.08,6775,13.56,73806.3,0.69,-0.03,-0.03,0,*71
1493845509.24,6776,13.56,73802.5,0.69,-0.07,-0.15,0,*41
1493845510.4,6777,13.56,73806.3,0.69,-0.07,-0.07,0,*73
1493845511.56,6778,13.56,73804.0,0.69,-0.15,-0.07,0,*4F
1493845512.73,6779,13.56,73806.0,0.69,-0.15,-0.15,0,*7D
1493845513.89,6780,13.56,73802.5,0.69,-0.07,-0.15,0,*48
1493845515.04,6781,13.56,73802.8,0.69,-0.07,-0.07,0,*7A
1493845516.2,6782,13.56,73798.8,0.69,-0.07,-0.07,0,*79
1493845517.36,6783,13.56,73796.5,0.69,-0.15,-0.07,0,*4B
1493845518.51,6784,13.56,73802.8,0.69,-0.07,-0.07,0,*7F
1493845519.67,6785,13.56,73794.5,0.69,-0.07,-0.07,0,*7E
1493845520.87,6786,13.56,73788.0,0.67,-0.11,-0.11,0,*73
1493845522.02,6787,13.56,73788.8,0.69,-0.07,-0.07,0,*7C
1493845523.18,6788,13.56,73794.3,0.69,-0.15,-0.07,0,*40
1493845524.34,6789,13.56,73792.3,0.69,-0.07,-0.07,0,*72
1493845525.5,6790,13.56,73792.3,0.69,-0.07,-0.15,0,*49
1493845526.65,6791,13.56,73792.0,0.73,-0.03,-0.03,0,*70
1493845527.81,6792,13.56,73794.3,0.73,-0.03,-0.03,0,*73
1493845528.96,6793,13.56,73792.5,0.73,-0.03,-0.03,0,*72
1493845530.11,6794,13.56,73794.5,0.73,-0.03,-0.03,0,*75
1493845531.27,6795,13.56,73790.0,0.73,-0.03,-0.03,0,*74
1493845532.42,6796,13.56,73788.0,0.73,-0.03,-0.03,0,*77
1493845533.59,6797,13.56,73788.5,0.73,-0.11,-0.11,0,*76
1493845534.74,6798,13.56,73786.3,0.73,-0.03,-0.03,0,*79
1493845535.9,6799,13.56,73788.0,0.73,-0.03,-0.03,0,*78
1493845537.05,6800,13.56,73790.5,0.73,-0.03,-0.03,0,*77
1493845538.22,6801,13.56,73790.3,0.69,-0.15,-0.15,0,*7D
1493845539.42,6802,13.56,73794.8,0.67,-0.11,-0.11,0,*70
1493845540.58,6803,13.56,73792.8,0.69,-0.07,-0.15,0,*4C
1493845541.73,6804,13.56,73798.8,0.69,-0.07,-0.07,0,*78
1493845542.9,6805,13.56,73796.3,0.69,-0.07,-0.15,0,*4A
1493845544.06,6806,13.56,73798.3,0.69,-0.15,-0.15,0,*7A
1493845545.22,6807,13.56,73800.8,0.69,-0.15,-0.07,0,*48
1493845546.42,6808,13.56,73804.0,0.67,-0.19,-0.11,0,*72
1493845547.59,6809,13.56,73804.5,0.73,-0.03,-0.11,0,*4D
1493845548.75,6810,13.56,73804.0,0.73,-0.11,-0.03,0,*45
1493845549.9,6811,13.56,73804.3,0.69,-0.07,-0.07,0,*7C
1493845551.06,6812,13.56,73796.8,0.69,-0.07,-0.07,0,*7F
1493845552.22,6813,13.56,73800.0,0.69,-0.07,-0.15,0,*4D
1493845553.38,6814,13.56,73802.8,0.69,-0.15,-0.07,0,*4A
1493845554.53,6815,13.56,73800.3,0.69,-0.07,-0.07,0,*78
1493845555.7,6816,13.56,73800.3,0.69,-0.07,-0.15,0,*48
1493845556.85,6817,13.56,73802.5,0.69,-0.07,-0.07,0,*7A
1493845558.0,6818,13.56,73796.3,0.73,-0.03,-0.03,0,*7E
1493845559.15,6819,13.56,73796.5,0.77,0.01,0.01,0,*7B
1493845560.31,6820,13.56,73800.5,0.73,-0.03,-0.11,0,*46
1493845561.47,6821,13.56,73798.0,0.73,-0.03,-0.03,0,*74
1493845562.62,6822,13.56,73798.8,0.73,-0.03,-0.03,0,*77
1493845563.77,6823,13.56,73798.8,0.73,-0.03,-0.03,0,*76
1493845564.93,6824,13.56,73798.3,0.73,-0.03,-0.03,0,*71
1493845566.09,6825,13.56,73796.5,0.73,-0.03,-0.11,0,*43
1493845567.25,6826,13.56,73796.3,0.73,-0.11,-0.03,0,*40
1493845568.42,6827,13.56,73798.3,0.77,-0.03,-0.03,0,*76
1493845569.57,6828,13.56,73794.0,0.73,-0.03,-0.03,0,*7D
1493845570.72,6829,13.56,73794.5,0.73,-0.03,-0.03,0,*7C
1493845571.89,6830,13.56,73800.5,0.73,-0.03,-0.11,0,*47
1493845573.05,6831,13.56,73792.3,0.73,-0.03,-0.11,0,*46
1493845574.22,6832,13.56,73792.3,0.73,-0.11,-0.11,0,*76
1493845575.38,6833,13.56,73788.5,0.73,-0.03,-0.11,0,*44
1493845576.54,6834,13.56,73794.3,0.73,-0.03,-0.03,0,*70
1493845577.7,6835,13.56,73790.0,0.73,-0.11,-0.03,0,*42
1493845578.85,6836,13.56,73792.3,0.73,-0.11,-0.03,0,*41
1493845580.01,6837,13.56,73792.8,0.69,-0.07,-0.07,0,*78
1493845581.16,6838,13.56,73792.0,0.73,-0.03,-0.03,0,*7C
1493845582.32,6839,13.56,73792.8,0.73,-0.11,-0.03,0,*4E
1493845583.49,6840,13.56,73788.5,0.73,-0.11,-0.11,0,*73
1493845584.65,6841,13.56,73794.8,0.73,-0.03,-0.11,0,*41
1493845585.82,6842,13.56,73790.8,0.69,-0.15,-0.07,0,*49
1493845586.98,6843,13.56,73786.5,0.69,-0.07,-0.15,0,*48
1493845588.13,6844,13.56,73784.8,0.69,-0.07,-0.07,0,*7C
1493845589.29,6845,13.56,73786.0,0.69,-0.07,-0.07,0,*7D
1493845590.44,6846,13.56,73790.3,0.69,-0.07,-0.07,0,*7E
1493845591.6,6847,13.56,73788.5,0.69,-0.15,-0.07,0,*4C
1493845592.76,6848,13.56,73788.0,0.73,-0.03,-0.03,0,*7B
1493845593.91,6849,13.56,73788.3,0.69,-0.07,-0.07,0,*71
1493845595.07,6850,13.56,73790.0,0.69,-0.15,-0.07,0,*4A
1493845596.23,6851,13.56,73784.5,0.69,-0.07,-0.07,0,*78
1493845597.38,6852,13.56,73784.3,0.69,-0.07,-0.07,0,*7B
1493845598.58,6853,13.56,73786.5,0.67,-0.11,-0.19,0,*7C
1493845599.74,6854,13.56,73784.5,0.69,-0.15,-0.07,0,*4E
1493845600.89,6855,13.56,73784.8,0.69,-0.07,-0.07,0,*7C
1493845602.05,6856,13.56,73788.5,0.69,-0.15,-0.07,0,*4C
1493845603.21,6857,13.56,73786.0,0.69,-0.07,-0.15,0,*4D
1493845604.38,6858,13.56,73782.8,0.73,-0.03,-0.11,0,*49
1493845605.54,6859,13.56,73788.8,0.69,-0.07,-0.15,0,*43
1493845606.74,6860,13.56,73790.0,0.67,-0.11,-0.11,0,*74
1493845607.9,6861,13.56,73788.3,0.69,-0.07,-0.15,0,*48
1493845609.07,6862,13.56,73788.5,0.69,-0.15,-0.15,0,*78
1493845610.24,6863,13.56,73788.5,0.69,-0.15,-0.15,0,*79
1493845611.4,6864,13.56,73790.8,0.69,-0.07,-0.15,0,*4D
1493845612.56,6865,13.56,73788.3,0.69,-0.07,-0.07,0,*7F
1493845613.72,6866,13.56,73784.8,0.69,-0.11,-0.19,0,*74
1493845614.88,6867,13.56,73784.8,0.69,-0.15,-0.07,0,*4E
1493845616.04,6868,13.56,73788.5,0.69,-0.07,-0.07,0,*72
1493845617.2,6869,13.56,73788.8,0.69,-0.15,-0.07,0,*40
1493845618.36,6870,13.56,73790.3,0.69,-0.15,-0.07,0,*48
1493845619.53,6871,13.56,73788.5,0.69,-0.15,-0.15,0,*7A
1493845620.69,6872,13.56,73790.5,0.69,-0.15,-0.15,0,*79
1493845621.86,6873,13.56,73790.8,0.69,-0.15,-0.15,0,*78
1493845623.02,6874,13.56,73790.8,0.69,-0.15,-0.07,0,*4C
1493845624.19,6875,13.56,73794.0,0.69,-0.07,-0.15,0,*4D
1493845625.35,6876,13.56,73794.5,0.69,-0.15,-0.15,0,*7D
1493845626.51,6877,13.56,73796.3,0.69,-0.15,-0.07,0,*4F
1493845627.68,6878,13.56,73790.5,0.69,-0.07,-0.15,0,*40
1493845628.83,6879,13.56,73790.5,0.69,-0.07,-0.07,0,*72
1493845630.03,6880,13.56,73792.8,0.67,-0.19,-0.11,0,*72
1493845631.2,6881,13.56,73794.5,0.69,-0.15,-0.15,0,*75
1493845632.36,6882,13.56,73788.0,0.69,-0.07,-0.15,0,*45
1493845633.53,6883,13.56,73788.3,0.69,-0.15,-0.15,0,*77
1493845634.7,6884,13.56,73792.3,0.73,-0.11,-0.11,0,*7B
1493845635.85,6885,13.56,73786.5,0.69,-0.07,-0.07,0,*71
1493845637.02,6886,13.56,73792.5,0.69,-0.07,-0.15,0,*41
1493845638.17,6887,13.56,73788.5,0.69,-0.07,-0.07,0,*73
1493845639.32,6888,13.56,73786.5,0.69,-0.07,-0.07,0,*7C
1493845640.49,6889,13.56,73790.5,0.69,-0.15,-0.15,0,*7D
1493845641.65,6890,13.56,73786.5,0.69,-0.07,-0.07,0,*75
1493845642.81,6891,13.56,73786.0,0.73,-0.11,-0.03,0,*4C
1493845643.97,6892,13.56,73794.5,0.73,-0.03,-0.11,0,*4F
1493845645.13,6893,13.56,73794.5,0.73,-0.03,-0.11,0,*4E
1493845646.3,6894,13.56,73788.3,0.73,-0.03,-0.11,0,*49
1493845647.46,6895,13.56,73792.0,0.69,-0.15,-0.15,0,*70
1493845648.66,6896,13.56,73794.0,0.67,-0.11,-0.11,0,*7D
1493845649.86,6897,13.56,73790.0,0.67,-0.19,-0.11,0,*74
1493845651.02,6898,13.56,73794.8,0.69,-0.07,-0.15,0,*4E
1493845652.18,6899,13.56,73790.3,0.69,-0.15,-0.07,0,*4F
1493845653.34,6900,13.56,73790.8,0.69,-0.07,-0.07,0,*7D
1493845654.5,6901,13.56,73788.8,0.73,-0.03,-0.11,0,*44
1493845655.67,6902,13.56,73790.0,0.73,-0.03,-0.11,0,*47
1493845656.83,6903,13.56,73788.5,0.73,-0.11,-0.11,0,*75
1493845658.0,6904,13.56,73790.8,0.73,-0.11,-0.11,0,*72
1493845659.17,6905,13.56,73788.5,0.73,-0.03,-0.11,0,*40
1493845660.34,6906,13.56,73788.5,0.73,-0.11,-0.11,0,*70
1493845661.5,6907,13.56,73790.8,0.69,-0.15,-0.15,0,*7A
1493845662.67,6908,13.56,73796.0,0.69,-0.15,-0.15,0,*75
1493845663.84,6909,13.56,73792.5,0.69,-0.15,-0.15,0,*74
1493845665.01,6910,13.56,73792.0,0.73,-0.11,-0.11,0,*77
1493845666.18,6911,13.56,73786.0,0.69,-0.15,-0.15,0,*7D
1493845667.35,6912,13.56,73788.8,0.69,-0.15,-0.15,0,*7E
1493845668.51,6913,13.56,73784.8,0.69,-0.07,-0.15,0,*4C
1493845669.68,6914,13.56,73788.3,0.69,-0.15,-0.15,0,*78
1493845670.84,6915,13.56,73782.0,0.69,-0.15,-0.15,0,*79
1493845672.01,6916,13.56,73784.3,0.69,-0.15,-0.15,0,*7A
1493845673.18,6917,13.56,73786.3,0.69,-0.19,-0.15,0,*77
1493845674.35,6918,13.56,73784.8,0.69,-0.15,-0.15,0,*74
1493845675.52,6919,13.56,73784.8,0.69,-0.15,-0.15,0,*75
1493845676.69,6920,13.56,73794.8,0.73,-0.11,-0.11,0,*74
1493845677.86,6921,13.56,73784.8,0.69,-0.15,-0.15,0,*7E
1493845679.01,6922,13.56,73788.3,0.69,-0.07,-0.07,0,*7D
1493845680.18,6923,13.56,73790.5,0.69,-0.15,-0.19,0,*70
1493845681.34,6924,13.56,73786.5,0.69,-0.15,-0.19,0,*77
1493845682.51,6925,13.56,73786.5,0.69,-0.19,-0.15,0,*76
1493845683.68,6926,13.56,73790.3,0.69,-0.15,-0.15,0,*79
1493845684.85,6927,13.56,73790.3,0.69,-0.15,-0.19,0,*74
1493845686.01,6928,13.56,73790.5,0.69,-0.07,-0.15,0,*44
1493845687.17,6929,13.5,73784.0,0.69,-0.15,-0.07,0,*45
1493845688.33,6930,13.56,73788.0,0.69,-0.07,-0.07,0,*7E
1493845689.49,6931,13.5,73790.0,0.69,-0.15,-0.15,0,*7F
1493845690.69,6932,13.56,73788.3,0.67,-0.11,-0.19,0,*7A
1493845691.85,6933,13.56,73794.3,0.69,-0.07,-0.07,0,*7D
1493845693.01,6934,13.56,73790.5,0.69,-0.15,-0.15,0,*7A
1493845694.17,6935,13.56,73786.0,0.69,-0.07,-0.19,0,*44
1493845695.34,6936,13.56,73788.3,0.69,-0.15,-0.15,0,*78
1493845696.51,6937,13.56,73790.0,0.69,-0.15,-0.15,0,*79
1493845697.68,6938,13.56,73788.0,0.69,-0.15,-0.15,0,*76